User: anonymous   Login
Location: Monroe
(41.9160°N, 83.3980°W)
Time: 17:12:21
(UTC-04:00)
Language:

ISS - Orbit

View from above orbital plane
View from above orbital plane
View from above satellite
View from above satellite

Ground track
Ground track

The orbit data is extracted from the following two-line orbital elements,

1 25544U 98067A   16182.57467022  .00016717  00000-0  10270-3 0  9086
2 25544  51.6409 351.2468 0000847  23.9139 336.2053 15.54714414  7063
Epoch (UTC): 30 June 2016 13:47:31
Eccentricity: 0.0000847
inclination: 51.6409°
perigee height: 402 km
apogee height: 403 km
right ascension of ascending node: 351.2468°
argument of perigee: 23.9139°
revolutions per day: 15.54714414
mean anomaly at epoch: 336.2053°
orbit number at epoch: 706

The dashed part of the orbit path shows where the satellite is in the earth's shadow,  

DLR